Location: Eastlake (historical)
(39.0077°N, 122.6678°W)
Time: 10:07:38
(UTC+00:00)

Cosmos 1603 - Pass Details

Date: 25 November 2020
Orbit: 831 x 859 km, 71.0° (Epoch: 25 January)

Event Time Altitude Azimuth Distance (km) Brightness Sun altitude
Exits shadow 12:49:55 21° 355° (N) 1,793 5.3 -25.9°
Maximum altitude 12:53:30 51° 63° (ENE) 1,048 4.4 -25.2°
Drops below altitude 10° 12:58:57 10° 139° (SE) 2,449 6.7 -24.1°
Sets 13:01:27 0° 144° (SE) 3,384 7.5 -23.7°
